SCP
0 -0 0 0 -0 -0 -0 0 0 0 0 0 0 0 0 0 0 0 0 0 0 0 0 0 0 0 0 0 0 0 0 0 0
-0 -0 0 0 0 -0 -0 -0 0 0 0 0 0 0 0 0 0 0 0 0 0 0 0 0 0 0 0 0 0 0 0 0 0
0 0 0 0 0 -0 -0 0 0 -0 0 0 0 0 0 0 0 0 0 0 0 0 0 0 0 0 0 0 0 0 0 0 0
-0 0 0 0 0 -0 0 0 0 0 0 0 0 0 0 0 0 0 0 0 0 0 0 0 -0 -0 -0 0 0 0 0 0 0
-0 0 -0 -0 0 -0 -0 0 0 0 0 0 0 0 0 0 0 0 0 0 0 0 0 0 -0 -0 0 0 -0 0 -0 -0 0
0 0 -0 -0 0 0 0 0 0 0 0 0 0 0 0 0 0 0 0 0 0 0 0 0 0 0 0 0 0 0 0 0 0
0 0 0 0 -0 0 0 0 0 0 0 0 0 0 0 0 0 0 0 0 0 0 0 0 0 0 0 0 0 0 0 0 0
0 0 0 0 0 -0 0 0 0 0 -0 0 -0 0 0 0 1 0 0 0 0 0 0 0 0 0 0 0 0 0 0 0 0
0 0 0 0 0 0 0 0 0 0 0 0 0 0 0 0 0 0 0 0 0 0 0 0 0 0 0 0 0 0 0 0 0
0 0 0 0 0 0 0 0 0 0 0 0 0 0 0 0 0 1 0 0 0 0 0 0 0 0 0 0 0 0 0 0 0
0 0 0 0 0 0 0 0 0 0 0 0 0 0 0 1 0 0 0 0 0 1 1 1 1 0 1 0 0 0 0 0 0
-0 -0 0 0 0 0 0 0 0 0 0 0 0 0 0 1 1 0 0 0 0 1 1 1 1 1 1 1 1 0 0 0 0
0 0 0 0 0 0 0 0 0 0 0 0 0 0 0 1 1 1 0 1 1 1 1 1 1 1 1 1 0 0 0 0 0
0 0 0 0 0 0 0 0 0 0 0 0 0 0 0 0 0 1 1 1 1 1 1 0 0 0 0 0 0 0 0 0 0
0 0 0 0 0 0 0 0 0 0 0 0 0 0 0 0 0 0 0 0 0 0 0 0 0 0 0 0 0 0 0 0 0
0 0 0 0 0 0 0 0 0 0 0 0 0 0 0 0 0 0 0 0 0 0 0 0 0 0 0 0 0 0 0 0 0
0 0 0 0 0 0 0 0 0 0 0 0 0 0 0 0 0 0 0 0 0 0 0 0 0 0 0 0 0 0 0 0 0
0 0 0 0 0 0 0 0 0 0 0 0 0 0 0 0 0 0 0 0 0 0 0 0 0 0 0 0 0 0 0 0 0
0 0 0 0 0 0 0 0 0 0 0 0 0 0 0 0 0 0 0 0 0 0 0 0 0 0 0 0 0 0 0 0 0
0 0 0 0 0 0 0 0 0 0 0 0 0 0 0 0 0 0 0 0 0 0 0 0 0 0 0 0 0 0 0 0 0
Wind_Speed_500mb
39 60 62 60 64 66 68 61 59 52 51 50 47 43 39 36 36 36 33 29 26 26 17 16 21 16 13 24 21 15 20 20 17
19 41 57 59 56 61 69 64 60 55 55 50 45 46 45 42 36 37 38 33 29 24 26 22 17 19 19 17 20 22 19 21 18
6 17 32 47 53 60 60 64 60 56 57 53 46 47 48 47 41 41 42 40 36 33 27 30 27 24 24 26 22 19 20 21 21
10 8 16 28 37 42 64 61 61 57 56 56 53 52 50 49 48 45 45 45 44 41 36 29 30 31 27 26 28 25 21 24 25
8 15 21 26 28 35 45 58 58 61 59 59 56 53 54 49 52 52 49 47 48 46 42 41 36 35 33 27 30 35 35 29 26
8 13 9 6 16 29 39 47 51 57 63 59 55 53 55 57 53 55 54 50 49 53 49 45 43 38 41 36 31 38 40 32 30
5 10 9 2 6 21 29 36 44 48 57 64 60 58 53 48 45 57 50 52 49 52 56 52 48 43 44 41 35 31 36 35 36
3 4 7 4 7 18 31 37 39 46 58 63 67 62 55 53 56 49 53 53 53 48 54 56 52 49 48 44 42 40 41 40 39
13 6 3 3 7 7 13 22 26 33 42 55 57 63 68 68 54 49 53 57 54 52 49 55 56 57 54 50 48 45 42 43 44
13 9 3 2 6 9 16 20 21 22 25 30 47 67 75 79 85 71 57 57 59 57 57 52 55 61 61 63 60 53 49 47 47
15 11 7 9 12 15 20 26 28 30 30 28 33 47 62 74 86 87 84 67 61 58 58 60 55 56 60 61 58 62 57 53 51
7 7 6 10 16 23 28 28 31 30 32 34 32 36 42 55 64 71 70 70 56 53 53 54 57 54 53 54 57 53 51 51 53
9 8 8 14 19 25 30 32 31 32 30 34 31 31 32 41 46 51 57 62 59 54 50 50 51 53 50 48 48 49 49 54 54
14 18 20 19 24 28 33 29 30 31 29 37 26 18 15 27 38 45 50 54 58 59 53 47 44 46 49 47 46 49 52 60 53
22 21 25 25 27 28 27 25 27 28 28 27 28 21 15 28 39 37 36 38 42 49 46 43 43 44 47 48 45 40 36 34 19
24 22 23 27 29 30 24 22 26 28 26 25 33 24 25 35 31 26 29 36 50 56 56 48 36 46 48 43 38 34 30 22 19
20 21 22 26 30 32 26 21 21 26 26 26 32 25 25 26 24 21 22 25 26 31 49 47 38 34 40 39 35 32 32 25 23
26 24 23 26 30 29 22 19 17 23 26 22 33 28 27 22 21 15 13 19 25 38 48 49 52 48 40 45 48 42 35 33 30
27 26 26 27 26 25 23 17 19 20 20 18 33 28 23 16 12 10 9 12 16 9 27 47 61 53 49 53 50 46 43 40 36
27 26 25 25 22 23 21 19 19 14 15 21 30 25 25 26 20 19 31 30 38 43 48 48 45 42 43 40 42 40 37 31 33
Wind_Direction_500mb
229 221 219 217 220 219 218 220 222 223 225 224 225 227 227 227 228 232 232 232 230 229 223 228 219 214 208 211 218 229 233 242 253
217 218 223 221 222 222 218 224 222 217 219 222 224 226 230 231 234 229 227 230 232 231 231 226 227 230 225 225 228 238 242 234 244
318 250 233 228 225 224 223 225 222 220 220 222 227 227 227 231 233 233 231 238 242 241 242 233 243 235 240 234 232 236 238 245 247
301 300 256 238 229 227 227 226 224 223 223 228 230 234 233 234 235 235 238 241 244 239 240 242 237 242 240 233 237 240 248 254 255
300 303 282 253 234 222 221 230 230 226 224 233 234 237 240 245 243 243 242 245 240 242 245 243 248 249 237 243 244 246 249 257 264
328 350 332 213 220 225 225 227 233 234 234 237 240 240 242 244 248 244 246 247 243 238 241 243 246 247 236 248 255 260 243 250 259
353 3 4 235 226 238 220 227 241 246 248 242 243 245 244 239 253 247 246 250 249 244 239 240 240 242 243 249 256 252 235 248 261
152 49 44 33 244 250 234 244 248 248 245 250 253 246 241 241 251 250 245 245 245 245 241 240 244 239 239 245 250 250 250 262 265
189 226 239 184 194 232 236 245 248 245 248 245 255 242 242 251 252 240 241 241 241 241 245 241 241 241 240 240 244 252 257 263 268
202 179 123 243 252 256 265 263 258 258 248 246 248 249 245 247 249 252 253 245 239 240 241 243 245 243 244 247 251 254 257 259 264
178 198 271 264 274 282 286 286 282 262 257 261 264 253 249 240 242 247 251 247 239 239 243 242 246 246 245 249 252 255 258 258 263
168 211 232 269 281 288 287 291 287 275 253 253 268 261 248 239 239 242 244 240 246 237 240 243 244 244 244 249 251 257 254 255 258
355 337 315 299 294 297 294 294 288 278 270 253 254 264 251 237 235 240 241 239 234 233 234 238 238 236 238 244 250 255 257 257 257
295 299 306 305 309 311 306 291 282 280 274 261 257 264 257 239 236 238 235 234 227 226 224 231 235 238 242 245 247 251 255 257 263
280 278 293 300 304 306 316 296 286 279 275 264 253 252 254 247 224 219 213 209 207 212 216 226 236 237 241 242 242 251 270 273 237
267 264 282 293 297 301 308 287 272 271 272 265 243 238 241 219 223 220 225 232 235 233 231 225 235 230 229 229 232 238 242 216 204
275 271 273 285 292 297 296 284 264 262 276 269 234 215 217 226 231 235 235 245 243 245 237 219 213 218 217 211 207 201 185 189 188
288 275 274 284 294 295 293 291 267 274 273 252 208 207 211 221 239 231 246 243 241 231 228 233 228 220 213 199 181 175 173 165 154
286 274 279 288 291 287 282 291 277 286 270 232 199 210 218 200 184 200 184 157 146 172 215 200 194 187 178 166 158 141 138 140 136
281 275 282 291 283 276 273 293 274 251 234 205 190 190 174 165 157 161 134 129 125 118 111 107 111 116 119 121 128 132 132 123 117
Wind_Speed_850mb
39 60 62 60 64 66 68 61 59 52 51 50 47 43 39 36 36 36 33 29 26 26 17 16 21 16 13 24 21 15 20 20 17
19 41 57 59 56 61 69 64 60 55 55 50 45 46 45 42 36 37 38 33 29 24 26 22 17 19 19 17 20 22 19 21 18
6 17 32 47 53 60 60 64 60 56 57 53 46 47 48 47 41 41 42 40 36 33 27 30 27 24 24 26 22 19 20 21 21
10 8 16 28 37 42 64 61 61 57 56 56 53 52 50 49 48 45 45 45 44 41 36 29 30 31 27 26 28 25 21 24 25
8 15 21 26 28 35 45 58 58 61 59 59 56 53 54 49 52 52 49 47 48 46 42 41 36 35 33 27 30 35 35 29 26
8 13 9 6 16 29 39 47 51 57 63 59 55 53 55 57 53 55 54 50 49 53 49 45 43 38 41 36 31 38 40 32 30
5 10 9 2 6 21 29 36 44 48 57 64 60 58 53 48 45 57 50 52 49 52 56 52 48 43 44 41 35 31 36 35 36
3 4 7 4 7 18 31 37 39 46 58 63 67 62 55 53 56 49 53 53 53 48 54 56 52 49 48 44 42 40 41 40 39
13 6 3 3 7 7 13 22 26 33 42 55 57 63 68 68 54 49 53 57 54 52 49 55 56 57 54 50 48 45 42 43 44
13 9 3 2 6 9 16 20 21 22 25 30 47 67 75 79 85 71 57 57 59 57 57 52 55 61 61 63 60 53 49 47 47
15 11 7 9 12 15 20 26 28 30 30 28 33 47 62 74 86 87 84 67 61 58 58 60 55 56 60 61 58 62 57 53 51
7 7 6 10 16 23 28 28 31 30 32 34 32 36 42 55 64 71 70 70 56 53 53 54 57 54 53 54 57 53 51 51 53
9 8 8 14 19 25 30 32 31 32 30 34 31 31 32 41 46 51 57 62 59 54 50 50 51 53 50 48 48 49 49 54 54
14 18 20 19 24 28 33 29 30 31 29 37 26 18 15 27 38 45 50 54 58 59 53 47 44 46 49 47 46 49 52 60 53
22 21 25 25 27 28 27 25 27 28 28 27 28 21 15 28 39 37 36 38 42 49 46 43 43 44 47 48 45 40 36 34 19
24 22 23 27 29 30 24 22 26 28 26 25 33 24 25 35 31 26 29 36 50 56 56 48 36 46 48 43 38 34 30 22 19
20 21 22 26 30 32 26 21 21 26 26 26 32 25 25 26 24 21 22 25 26 31 49 47 38 34 40 39 35 32 32 25 23
26 24 23 26 30 29 22 19 17 23 26 22 33 28 27 22 21 15 13 19 25 38 48 49 52 48 40 45 48 42 35 33 30
27 26 26 27 26 25 23 17 19 20 20 18 33 28 23 16 12 10 9 12 16 9 27 47 61 53 49 53 50 46 43 40 36
27 26 25 25 22 23 21 19 19 14 15 21 30 25 25 26 20 19 31 30 38 43 48 48 45 42 43 40 42 40 37 31 33
Wind_Direction_850mb
229 221 219 217 220 219 218 220 222 223 225 224 225 227 227 227 228 232 232 232 230 229 223 228 219 214 208 211 218 229 233 242 253
217 218 223 221 222 222 218 224 222 217 219 222 224 226 230 231 234 229 227 230 232 231 231 226 227 230 225 225 228 238 242 234 244
318 250 233 228 225 224 223 225 222 220 220 222 227 227 227 231 233 233 231 238 242 241 242 233 243 235 240 234 232 236 238 245 247
301 300 256 238 229 227 227 226 224 223 223 228 230 234 233 234 235 235 238 241 244 239 240 242 237 242 240 233 237 240 248 254 255
300 303 282 253 234 222 221 230 230 226 224 233 234 237 240 245 243 243 242 245 240 242 245 243 248 249 237 243 244 246 249 257 264
328 350 332 213 220 225 225 227 233 234 234 237 240 240 242 244 248 244 246 247 243 238 241 243 246 247 236 248 255 260 243 250 259
353 3 4 235 226 238 220 227 241 246 248 242 243 245 244 239 253 247 246 250 249 244 239 240 240 242 243 249 256 252 235 248 261
152 49 44 33 244 250 234 244 248 248 245 250 253 246 241 241 251 250 245 245 245 245 241 240 244 239 239 245 250 250 250 262 265
189 226 239 184 194 232 236 245 248 245 248 245 255 242 242 251 252 240 241 241 241 241 245 241 241 241 240 240 244 252 257 263 268
202 179 123 243 252 256 265 263 258 258 248 246 248 249 245 247 249 252 253 245 239 240 241 243 245 243 244 247 251 254 257 259 264
178 198 271 264 274 282 286 286 282 262 257 261 264 253 249 240 242 247 251 247 239 239 243 242 246 246 245 249 252 255 258 258 263
168 211 232 269 281 288 287 291 287 275 253 253 268 261 248 239 239 242 244 240 246 237 240 243 244 244 244 249 251 257 254 255 258
355 337 315 299 294 297 294 294 288 278 270 253 254 264 251 237 235 240 241 239 234 233 234 238 238 236 238 244 250 255 257 257 257
295 299 306 305 309 311 306 291 282 280 274 261 257 264 257 239 236 238 235 234 227 226 224 231 235 238 242 245 247 251 255 257 263
280 278 293 300 304 306 316 296 286 279 275 264 253 252 254 247 224 219 213 209 207 212 216 226 236 237 241 242 242 251 270 273 237
267 264 282 293 297 301 308 287 272 271 272 265 243 238 241 219 223 220 225 232 235 233 231 225 235 230 229 229 232 238 242 216 204
275 271 273 285 292 297 296 284 264 262 276 269 234 215 217 226 231 235 235 245 243 245 237 219 213 218 217 211 207 201 185 189 188
288 275 274 284 294 295 293 291 267 274 273 252 208 207 211 221 239 231 246 243 241 231 228 233 228 220 213 199 181 175 173 165 154
286 274 279 288 291 287 282 291 277 286 270 232 199 210 218 200 184 200 184 157 146 172 215 200 194 187 178 166 158 141 138 140 136
281 275 282 291 283 276 273 293 274 251 234 205 190 190 174 165 157 161 134 129 125 118 111 107 111 116 119 121 128 132 132 123 117